523 visiteurs
Prévisions de votre ville :
Vigilance : 2 départements le 26/11/20 à 16:00 - Voir la carte - Être alerté(e)

Paris Roissy CDG (95380) le 27/11/20 à 04:30 Choisir station

5°C 93 % NE Vit. moyenne 9 km/h

Relevés météo quotidiens pour la station de :

UTC
S: Synop
M: Metar
Loc T°C
(°C)
Td
(°C)
HR
(%)
Vis
(km)
Néb
(octa)
Vent
(km/h)
Pression
(mb)
Précipitations
(mm)
Temps
              MOY
10 min
DIR RAF 1h MESURE VAR SUR 3h    
S 00 h 02h 18.1 11.9 67 - 57 107 1014.1 +0.3/3h 0.0/6h - 0.0/3h -
S 01 h 03h 18.2 10.3 60 - 63 111 1013.9 -0.1/3h 0.0/1h -
S 02 h 04h 18.0 11.1 64 - 63 106 1013.7 +0.3/3h 0.0/1h -
S 03 h 05h 18.2 10.6 61 - 59 117 1014.1 0.0/3h 0.0/3h -
S 04 h 06h 17.9 11.5 66 - 63 126 1013.7 -0.2/3h 0.0/1h -
S 05 h 07h 17.9 11.7 67 - 61 106 1014.4 +0.7/3h 0.0/1h -
S 06 h 08h 18.1 12.5 70 - 30 119 1014.8 +0.7/3h 0.0/12h - 0.0/3h - 0.0/24h -
S 07 h 09h 18.3 12.3 68 - 78 117 1014.6 +0.9/3h 0.0/1h -
S 08 h 10h 19.0 12.5 66 - 56 106 1015.2 +0.9/3h 0.0/1h -
S 09 h 11h 19.0 12.7 67 - 35 130 1015.5 +0.8/3h 0.0/3h -
S 10 h 12h 19.1 11.4 61 - 72 120 1015.3 +0.8/3h 0.0/1h -
S 11 h 13h 19.3 11.8 62 - 76 120 1015.3 +0.1/3h 0.0/1h -
S 12 h 14h 19.6 11.6 60 15 6/8 69 115 1015.2 -0.3/3h 0.0/6h - 0.0/3h
S 13 h 15h 19.7 11.5 59 - 33 115 1015.1 -0.2/3h 0.0/1h -
S 14 h 16h 20.2 11.4 57 - 56 119 1014.9 -0.4/3h 0.0/1h -
S 15 h 17h 20.1 12.1 60 15 7/8 57 111 1015.4 +0.2/3h 0.0/3h
S 16 h 18h 20.2 12.9 63 - 63 115 1014.7 -0.4/3h 0.0/1h -
S 17 h 19h 20.1 12.6 62 - 56 104 1014.5 -0.4/3h 0.0/1h -
S 18 h 20h 19.8 13.3 66 - 63 131 1013.6 -1.8/3h 0.0/12h - 0.0/3h -
S 19 h 21h 19.7 13.6 68 - 65 122 1014.2 -0.5/3h 0.0/1h -
S 20 h 22h 19.8 14.2 70 - 44 126 1013.6 -0.9/3h 0.0/1h -
S 21 h 23h 19.3 14.1 72 15 8/8 61 126 1013.5 -0.1/3h 0.0/3h
S 22 h 00h 20.1 13.8 67 - 69 126 1011.9 -2.2/3h 0.0/1h -
S 23 h 01h 20.5 15.1 71 - 74 131 1011.3 -2.2/3h 0.0/1h -
evolution des temperatures
cumul des precipitations
vent moyen et rafales
pression atmospherique

Un tiret (-) signifie que les données ne sont pas disponibles.

Passez la souris sur les pictos temps pour avoir plus de précisions. Passez les flèches sur l'icône de la direction du vent pour voir la direction précise en degrés.

Les données de l'heure en cours sont disponibles à partir de H+15 minutes.


S signifie station Synop, plus complète qu'une station Metar (M). Il y a +1h de différence entre l'heure UTC et l'heure légale en hiver et +2h en été.

Td est la mesure du point de rosée.

HR est l'humidité relative/p>

Vis est la visibilité

Néb est la nébulosité du ciel (couverture nuageuse) exprimée en octas (de 0/8 à 8/8).

Vent moy 10 min donne le vent moyen sur les 10 minutes qui précèdent le relevé.

Vent raf 1h donne la rafale maximale mesurée dans l'heure qui précède le relevé.


Les données les plus anciennes remontent à avril 2014.

Les données présentées sur cette page proviennent des stations météo officielles. Les relevés sont effectués aux normes en vigueur (anémomètre à 10m de haut, thermomètre sous abri normalisé à 2m du sol...)

Météo 60 décline toute responsabilité en cas d'absence de données, d'erreurs, de mauvaise utilisation ou interprétation et n'est pas habilité à fournir des certificats intempéries.